Auburn, IN

9:56 PM EST on February 07, 2016 (GMT -0500)
Auburn

Weather History for KGWB - October, 2012

Change the Weather History Date:

Tuesday, October 30, 2012

  Actual Average (KFWA) Record (KFWA)
Temperature  
Mean Temperature 38 °F 48 °F  
Max Temperature 41 °F 58 °F 79 °F (1950)
Min Temperature 35 °F 38 °F 20 °F (1988)
Degree Days  
Heating Degree Days 27 17  
Month to date heating degree days 376  
Since 1 July heating degree days 492  
Cooling Degree Days 0 0  
Month to date cooling degree days 8  
Year to date cooling degree days 808  
Moisture  
Dew Point 32 °F    
Average Humidity 79    
Maximum Humidity 93    
Minimum Humidity 45    
Precipitation  
Precipitation 0.02 in 0.09 in 0.95 in (1942)
Month to date precipitation 2.75  
Year to date precipitation 32.39  
Snow  
Snow 0.00 in 0.00 in 0.70 in (1993)
Month to date snowfall 0.3  
Since 1 July snowfall 0.3  
Since 1 September snowfall 0.3  
Snow Depth -    
Sea Level Pressure  
Sea Level Pressure 29.61 in    
Wind  
Wind Speed 18 mph (NW)    
Max Wind Speed 23 mph    
Max Gust Speed 36 mph    
Visibility 8 miles    
Events Rain , Snow    
T = Trace of Precipitation, MM = Missing Value Source: NWS Daily Summary

Daily Weather History Graph

Daily Weather History Graph

Search for Another Location

Airport or City:

Trip Planner

Search our weather history database for the weather conditions in past years. The results will help you decide how hot, cold, wet, or windy it might be!

Date:

Astronomy

Oct. 30, 2012 Rise Set
Actual Time 8:09 AM EDT 6:37 PM EDT
Civil Twilight 7:41 AM EDT 7:05 PM EDT
Nautical Twilight 7:08 AM EDT 7:38 PM EDT
Astronomical Twilight 6:36 AM EDT 8:10 PM EDT
Moon 7:05 PM EDT (10/30) 8:56 AM EDT (10/30)
Length of Visible Light 11h 24m
Length of Day
10h 27m
Full, 99% of the Moon is Illuminated
Oct 30
Full
Nov 6
Last Quarter
Nov 13
New
Nov 20
First Quarter
Nov 28
Full

Hourly Weather History & Observations

Time (EDT) Temp. Windchill Dew Point Humidity Pressure Visibility Wind Dir Wind Speed Gust Speed Precip Events Conditions
12:15 AM 41.0 °F 31.9 °F 21.2 °F 45% 29.78 in 10.0 mi NNW 19.6 mph 28.8 mph N/A   Clear
12:35 AM 41.0 °F 31.4 °F 21.2 °F 45% 29.78 in 10.0 mi NNW 21.9 mph 31.1 mph N/A   Clear
12:55 AM 41.0 °F 31.9 °F 21.2 °F 45% 29.76 in 10.0 mi NNW 19.6 mph 34.5 mph N/A   Clear
1:15 AM 41.0 °F 32.2 °F 23.0 °F 49% 29.75 in 10.0 mi NNW 18.4 mph 29.9 mph N/A   Scattered Clouds
1:35 AM 41.0 °F 32.5 °F 23.0 °F 49% 29.74 in 10.0 mi NNW 17.3 mph 34.5 mph N/A   Mostly Cloudy
1:55 AM 41.0 °F 32.8 °F 23.0 °F 49% 29.73 in 10.0 mi NNW 16.1 mph 29.9 mph N/A   Mostly Cloudy
2:15 AM 41.0 °F 32.2 °F 23.0 °F 49% 29.72 in 10.0 mi NNW 18.4 mph 27.6 mph N/A   Overcast
2:35 AM 41.0 °F 31.9 °F 23.0 °F 49% 29.70 in 10.0 mi NNW 19.6 mph 26.5 mph N/A   Overcast
2:55 AM 41.0 °F 31.9 °F 23.0 °F 49% 29.69 in 10.0 mi NNW 19.6 mph 34.5 mph N/A   Overcast
3:15 AM 41.0 °F 31.4 °F 23.0 °F 49% 29.68 in 10.0 mi NNW 21.9 mph 29.9 mph N/A   Overcast
3:35 AM 41.0 °F 31.1 °F 23.0 °F 49% 29.67 in 10.0 mi NNW 23.0 mph 35.7 mph N/A   Overcast
3:55 AM 39.2 °F 29.6 °F 24.8 °F 56% 29.66 in 10.0 mi NNW 19.6 mph 32.2 mph N/A   Overcast
4:35 AM 37.4 °F 27.2 °F 26.6 °F 65% 29.65 in 10.0 mi NNW 19.6 mph 33.4 mph N/A   Overcast
4:55 AM 37.4 °F 26.9 °F 28.4 °F 70% 29.64 in 10.0 mi NNW 20.7 mph 28.8 mph N/A   Overcast
5:15 AM 37.4 °F 26.4 °F 28.4 °F 70% 29.63 in 10.0 mi NW 23.0 mph 33.4 mph N/A Snow Light Snow
5:35 AM 37.4 °F 27.5 °F 28.4 °F 70% 29.62 in 10.0 mi NW 18.4 mph 32.2 mph N/A   Light Drizzle
5:55 AM 37.4 °F 26.9 °F 28.4 °F 70% 29.62 in 10.0 mi NW 20.7 mph 29.9 mph N/A   Drizzle
6:35 AM 35.6 °F 24.8 °F 30.2 °F 81% 29.61 in 7.0 mi NW 19.6 mph 24.2 mph N/A Rain Light Rain
6:55 AM 35.6 °F 25.2 °F 30.2 °F 81% 29.60 in 7.0 mi NW 18.4 mph 31.1 mph N/A Rain Light Rain
7:15 AM 35.6 °F 25.5 °F 32.0 °F 87% 29.60 in 5.0 mi NW 17.3 mph 32.2 mph N/A Rain Light Rain
7:35 AM 35.6 °F 24.8 °F 32.0 °F 87% 29.58 in 7.0 mi NW 19.6 mph 27.6 mph N/A Rain Light Rain
7:55 AM 35.6 °F 24.0 °F 32.0 °F 87% 29.58 in 10.0 mi NNW 23.0 mph 31.1 mph N/A   Light Drizzle
8:15 AM 35.6 °F 25.2 °F 32.0 °F 87% 29.58 in 10.0 mi NW 18.4 mph 27.6 mph N/A   Light Drizzle
8:35 AM 35.6 °F 24.8 °F 32.0 °F 87% 29.58 in 10.0 mi NW 19.6 mph 28.8 mph N/A   Drizzle
8:55 AM 37.4 °F 27.2 °F 32.0 °F 81% 29.58 in 10.0 mi NNW 19.6 mph 28.8 mph N/A Rain Rain
9:15 AM 37.4 °F 27.5 °F 32.0 °F 81% 29.58 in 7.0 mi NNW 18.4 mph 29.9 mph N/A Rain Rain
9:35 AM 35.6 °F 25.2 °F 32.0 °F 87% 29.57 in 5.0 mi NNW 18.4 mph 25.3 mph N/A Rain Light Rain
9:55 AM 35.6 °F 24.5 °F 33.8 °F 93% 29.57 in 7.0 mi NNW 20.7 mph 29.9 mph N/A Rain Light Rain
10:15 AM 35.6 °F 24.8 °F 32.0 °F 87% 29.57 in 5.0 mi NNW 19.6 mph 26.5 mph N/A Snow Light Snow
10:35 AM 37.4 °F 27.8 °F 33.8 °F 87% 29.56 in 7.0 mi NNW 17.3 mph 25.3 mph 0.01 in Rain Light Rain
11:15 AM 37.4 °F 28.5 °F 33.8 °F 87% 29.56 in 10.0 mi NW 15.0 mph 26.5 mph N/A Rain Light Rain
11:35 AM 37.4 °F 28.9 °F 33.8 °F 87% 29.56 in 7.0 mi NNW 13.8 mph 23.0 mph N/A Rain Light Rain
11:55 AM 37.4 °F 26.6 °F 33.8 °F 87% 29.56 in 7.0 mi NNW 21.9 mph 31.1 mph N/A Rain Light Rain
12:15 PM 37.4 °F 26.9 °F 33.8 °F 87% 29.56 in 7.0 mi NW 20.7 mph 27.6 mph N/A Rain Light Rain
12:55 PM 37.4 °F 27.5 °F 33.8 °F 87% 29.57 in 4.0 mi NW 18.4 mph 26.5 mph N/A Rain Light Rain
1:15 PM 37.4 °F 27.5 °F 33.8 °F 87% 29.56 in 5.0 mi NNW 18.4 mph 25.3 mph N/A Rain Rain
1:35 PM 37.4 °F 27.8 °F 33.8 °F 87% 29.56 in 4.0 mi NNW 17.3 mph 23.0 mph N/A Rain Light Rain
1:55 PM 37.4 °F 28.2 °F 35.6 °F 93% 29.56 in 7.0 mi NNW 16.1 mph 26.5 mph 0.01 in Rain Light Rain
2:15 PM 37.4 °F 28.9 °F 35.6 °F 93% 29.55 in 5.0 mi NW 13.8 mph 25.3 mph N/A   Drizzle
2:35 PM 37.4 °F 28.5 °F 35.6 °F 93% 29.55 in 7.0 mi NW 15.0 mph 23.0 mph N/A Rain Rain
2:55 PM 37.4 °F 28.5 °F 35.6 °F 93% 29.55 in 5.0 mi NW 15.0 mph 19.6 mph N/A Rain Light Rain
3:15 PM 39.2 °F 30.5 °F 35.6 °F 87% 29.55 in 5.0 mi NNW 16.1 mph 24.2 mph N/A   Light Drizzle
3:35 PM 39.2 °F 31.2 °F 35.6 °F 87% 29.56 in 4.0 mi NNW 13.8 mph 24.2 mph N/A   Light Drizzle
3:55 PM 39.2 °F 30.2 °F 35.6 °F 87% 29.56 in 5.0 mi NW 17.3 mph 26.5 mph N/A   Light Drizzle
4:15 PM 39.2 °F 30.5 °F 35.6 °F 87% 29.56 in 7.0 mi NNW 16.1 mph 21.9 mph N/A   Overcast
4:35 PM 39.2 °F 30.8 °F 35.6 °F 87% 29.57 in 10.0 mi NNW 15.0 mph 24.2 mph N/A   Overcast
4:55 PM 39.2 °F 30.2 °F 35.6 °F 87% 29.57 in 10.0 mi NNW 17.3 mph 25.3 mph N/A   Overcast
5:15 PM 39.2 °F 31.2 °F 35.6 °F 87% 29.57 in 10.0 mi NNW 13.8 mph 21.9 mph N/A   Overcast
5:35 PM 39.2 °F 31.2 °F 35.6 °F 87% 29.58 in 10.0 mi NW 13.8 mph 21.9 mph N/A   Overcast
5:55 PM 41.0 °F 33.1 °F 35.6 °F 81% 29.58 in 10.0 mi NW 15.0 mph 21.9 mph N/A   Overcast
6:15 PM 39.2 °F 32.0 °F 35.6 °F 87% 29.59 in 10.0 mi NW 11.5 mph 17.3 mph N/A   Overcast
6:35 PM 39.2 °F 31.2 °F 35.6 °F 87% 29.60 in 10.0 mi NW 13.8 mph 21.9 mph N/A   Overcast
7:15 PM 39.2 °F 31.6 °F 35.6 °F 87% 29.61 in 10.0 mi NW 12.7 mph 17.3 mph N/A   Light Drizzle
7:35 PM 39.2 °F 31.2 °F 35.6 °F 87% 29.61 in 10.0 mi NW 13.8 mph 19.6 mph N/A   Drizzle
8:15 PM 37.4 °F 28.9 °F 35.6 °F 93% 29.62 in 5.0 mi NW 13.8 mph 19.6 mph N/A   Light Drizzle
8:35 PM 37.4 °F 30.3 °F 35.6 °F 93% 29.63 in 7.0 mi NW 10.4 mph - N/A   Overcast
8:55 PM 37.4 °F 28.9 °F 35.6 °F 93% 29.63 in 10.0 mi NW 13.8 mph 19.6 mph N/A   Overcast
9:15 PM 37.4 °F 31.4 °F 35.6 °F 93% 29.63 in 7.0 mi NW 8.1 mph 17.3 mph N/A   Overcast
9:35 PM 37.4 °F 30.3 °F 35.6 °F 93% 29.63 in 10.0 mi NW 10.4 mph 18.4 mph N/A   Overcast
9:55 PM 37.4 °F 30.8 °F 35.6 °F 93% 29.63 in 10.0 mi NW 9.2 mph 16.1 mph N/A   Overcast
10:15 PM 37.4 °F 29.8 °F 35.6 °F 93% 29.63 in 10.0 mi NW 11.5 mph 19.6 mph N/A   Light Drizzle
10:35 PM 37.4 °F 29.8 °F 33.8 °F 87% 29.63 in 10.0 mi NW 11.5 mph 17.3 mph N/A   Light Drizzle
10:55 PM 37.4 °F 30.3 °F 33.8 °F 87% 29.62 in 10.0 mi NW 10.4 mph 17.3 mph N/A Rain Light Rain
11:15 PM 37.4 °F 30.8 °F 33.8 °F 87% 29.62 in 10.0 mi NW 9.2 mph 16.1 mph N/A Rain Light Rain
11:35 PM 37.4 °F 30.3 °F 33.8 °F 87% 29.62 in 7.0 mi WNW 10.4 mph 17.3 mph N/A Rain Light Rain
11:55 PM 37.4 °F 29.3 °F 33.8 °F 87% 29.62 in 7.0 mi NW 12.7 mph 23.0 mph N/A Rain Rain